[[{"header":{"parameterUnit":"m.s-1","parameterCategory":1,"la1":30.2991,"la2":30.254,"lo1":-89.0895,"lo2":-89.0444,"dy":0.0017,"dx":0.0017,"nx":28,"ny":28,"refTime":"2024-09-25T03:00:00:Z","depth":0,"parameterNumber":2,"parameterNumberName":"U-component_of_WINDS"},"data":[0,0,0,0,0,0,0,0,0,0,0,0,0,0,0,0,0,0,0,0,0,0,0,0,0,0,0,0,0,0,0,0,0,0,0,0,0,0,0,0,0,0,0,0,0,0,0,0,0,0,0,0,0,0,0,0,0,0,-0.6232,-0.6233,0,-0.6346,-0.6347,-0.6348,-0.6396,-0.6395,-0.6395,-0.6395,-0.6514,-0.6517,-0.6521,0,0,0,0,0,0,0,0,0,0,0,0,0,-0.6059,-0.6062,-0.6232,-0.6233,-0.6235,-0.6345,-0.6347,-0.6348,-0.6396,-0.6395,-0.6395,-0.6395,-0.6513,-0.6517,-0.6521,0,0,0,0,0,0,0,0,0,0,0,0,0,-0.6149,-0.6063,-0.6232,-0.6271,-0.6276,-0.6345,-0.6347,-0.6349,-0.6396,-0.6395,-0.6395,-0.6395,-0.6511,-0.6516,-0.6521,-0.656,0,0,-0.6537,-0.6539,0,0,0,0,0,0,0,0,-0.6144,-0.6156,-0.6264,-0.6269,-0.6274,-0.6356,-0.633,-0.642,-0.6396,-0.635,-0.6395,-0.6394,-0.6462,-0.6471,-0.6493,-0.6565,-0.6571,-0.6537,-0.654,-0.6543,-0.6544,0,0,0,0,0,0,0,-0.6138,-0.6151,-0.6277,-0.6266,-0.6272,-0.6285,-0.6297,-0.6347,-0.6407,-0.6354,-0.6358,-0.6371,-0.6465,-0.6488,-0.6496,-0.6572,-0.6537,-0.6542,-0.6545,-0.6547,-0.6684,-0.6684,0,0,0,0,0,0,-0.6125,-0.6146,-0.6273,-0.628,-0.6207,-0.6288,-0.6302,-0.633,-0.6406,-0.6418,-0.6371,-0.6372,-0.648,-0.649,-0.6501,-0.6552,-0.6543,-0.6547,-0.655,-0.6683,-0.6684,-0.6685,0,0,0,0,0,0,-0.6121,-0.6136,-0.6269,-0.6214,-0.6232,-0.6292,-0.6323,-0.6333,-0.6356,-0.6419,-0.643,-0.6384,-0.648,-0.6494,-0.6545,-0.6557,-0.655,-0.6554,-0.6682,-0.6683,-0.6684,-0.6654,0,0,0,0,0,0,-0.6116,-0.6134,-0.6148,-0.6214,-0.6235,-0.631,-0.6323,-0.6335,-0.6365,-0.6368,-0.6434,-0.6445,-0.6481,-0.6537,-0.655,-0.6564,-0.6558,-0.6682,-0.6683,-0.6684,-0.6654,-0.6653,-0.6653,0,0,0,0,0,-0.6109,-0.6135,-0.6149,-0.6164,-0.6254,-0.6311,-0.6323,-0.6363,-0.6365,-0.6381,-0.6421,-0.6442,-0.6553,-0.6542,-0.6557,-0.6572,-0.6681,-0.6683,-0.6684,-0.6654,-0.6654,-0.6653,0,0,0,0,0,0,-0.607,-0.6145,-0.616,-0.6208,-0.6253,-0.6318,-0.6339,-0.636,-0.6406,-0.6407,-0.6456,-0.647,-0.6518,-0.655,-0.6536,-0.6614,-0.6619,-0.6623,-0.6591,-0.6591,-0.6591,-0.6582,-0.6563,0,0,0,0,0,-0.6067,-0.6106,-0.6169,-0.6206,-0.6227,-0.6279,-0.6305,-0.6332,-0.6381,-0.64,-0.6444,-0.6491,-0.6537,-0.6566,-0.6611,-0.6659,-0.6675,-0.6677,-0.6676,-0.6675,-0.6679,-0.6708,-0.671,-0.6689,-0.6689,-0.6689,0,0,-0.6061,-0.6107,-0.6128,-0.6199,-0.6236,-0.6277,-0.6295,-0.6336,-0.6367,-0.6407,-0.6458,-0.6492,-0.6548,-0.6598,-0.6622,-0.6626,-0.6688,-0.6677,-0.6676,-0.668,-0.671,-0.6712,-0.6713,-0.669,-0.669,-0.6689,0,0,-0.6071,-0.6109,-0.6144,-0.6181,-0.6238,-0.6272,-0.6281,-0.6344,-0.6368,-0.642,-0.645,-0.6488,-0.6565,-0.6604,-0.6634,-0.666,-0.6682,-0.6673,-0.6671,-0.6699,-0.6701,-0.6702,-0.6713,-0.6716,-0.6676,-0.6676,-0.6676,0,-0.6057,-0.6118,-0.6159,-0.62,-0.6231,-0.6267,-0.6304,-0.6338,-0.6407,-0.6428,-0.6431,-0.653,-0.657,-0.663,-0.6636,-0.6659,-0.6671,-0.6666,-0.6697,-0.6699,-0.6701,-0.6712,-0.6716,-0.6675,-0.6675,-0.6675,-0.6675,0,-0.6098,-0.6141,-0.6162,-0.6227,-0.626,-0.6298,-0.6347,-0.6376,-0.64,-0.6435,-0.6488,-0.6538,-0.6594,-0.661,-0.6634,-0.6675,-0.6676,-0.6687,-0.6693,-0.6701,-0.6712,-0.6716,-0.6673,-0.6673,-0.6674,-0.6674,0,0,-0.6087,-0.6174,-0.6182,-0.6212,-0.6278,-0.6312,-0.6352,-0.6407,-0.6431,-0.6478,-0.6514,-0.6579,-0.659,-0.6624,-0.6653,-0.6677,-0.6696,-0.6686,-0.6689,-0.6688,-0.6745,-0.6737,-0.6741,-0.6711,-0.6712,-0.6712,-0.6741,0,-0.6107,-0.618,-0.6219,-0.6276,-0.6316,-0.6352,-0.6388,-0.6433,-0.6466,-0.6507,-0.6544,-0.659,-0.6601,-0.6622,-0.6647,-0.6688,-0.6709,-0.6687,-0.6746,-0.6748,-0.6732,-0.6746,-0.6737,-0.6762,-0.6745,-0.6746,-0.6747,0,-0.6139,-0.6185,-0.6246,-0.6308,-0.6326,-0.6357,-0.6411,-0.6449,-0.6501,-0.6524,-0.6562,-0.659,-0.6636,-0.6638,-0.6702,-0.6687,-0.6713,-0.6738,-0.674,-0.6747,-0.6748,-0.6756,-0.677,-0.6774,-0.6754,-0.6753,-0.6752,0,-0.6126,-0.6202,-0.6249,-0.6274,-0.6347,-0.6369,-0.64,-0.6452,-0.6483,-0.653,-0.6551,-0.6603,-0.6632,-0.6673,-0.6715,-0.6712,-0.6776,-0.6781,-0.6798,-0.6797,-0.681,-0.6809,-0.6831,-0.6825,-0.6825,-0.6825,-0.6825,0,-0.6144,-0.6181,-0.6245,-0.6273,-0.6316,-0.6361,-0.6402,-0.6436,-0.6482,-0.652,-0.6554,-0.6589,-0.6642,-0.6684,-0.6718,-0.6767,-0.6779,-0.68,-0.6809,-0.6798,-0.6795,-0.6817,-0.6817,-0.6826,-0.6826,-0.6826,-0.6826,0,-0.6137,-0.6181,-0.6235,-0.63,-0.6317,-0.6345,-0.6402,-0.6432,-0.6467,-0.6514,-0.6528,-0.6584,-0.6635,-0.6682,-0.6749,-0.6772,-0.6823,-0.6833,-0.6805,-0.681,-0.6824,-0.6822,-0.6861,-0.6869,-0.6857,-0.6857,-0.6857,0,-0.6146,-0.6175,-0.6243,-0.627,-0.6301,-0.6344,-0.6376,-0.6421,-0.6453,-0.6515,-0.6538,-0.6592,-0.6637,-0.6717,-0.6765,-0.6817,-0.683,-0.684,-0.6838,-0.6826,-0.6832,-0.683,-0.6834,-0.6839,-0.6839,-0.6839,-0.6839,0,-0.6158,-0.6178,-0.6222,-0.6274,-0.6311,-0.6354,-0.6398,-0.6419,-0.6473,-0.6508,-0.656,-0.6595,-0.6664,-0.6717,-0.6775,-0.6809,-0.6834,-0.6839,-0.6846,-0.6836,-0.6818,-0.6829,-0.6805,-0.6838,-0.6838,-0.6839,-0.6839,-0.6839,-0.616,-0.6188,-0.624,-0.6288,-0.6327,-0.6368,-0.6399,-0.6439,-0.6483,-0.6543,-0.6567,-0.6621,-0.6674,-0.6754,-0.6788,-0.6832,-0.6837,-0.6846,-0.6849,-0.6851,-0.6849,-0.681,-0.6842,-0.6842,-0.6842,-0.6842,-0.6843,0,-0.6175,-0.621,-0.6254,-0.6315,-0.6353,-0.6372,-0.6423,-0.6454,-0.65,-0.6547,-0.6591,-0.6652,-0.6704,-0.6756,-0.6811,-0.6836,-0.6849,-0.6849,-0.6848,-0.6856,-0.6841,-0.683,-0.6838,-0.6838,-0.6838,-0.6838,-0.6838,-0.6838,-0.6187,-0.6235,-0.6262,-0.6331,-0.6367,-0.6419,-0.6446,-0.6485,-0.6523,-0.6589,-0.6632,-0.6666,-0.6715,-0.6774,-0.6824,-0.6838,-0.6857,-0.6854,-0.6872,-0.6857,-0.6857,-0.6857,-0.6847,-0.6858,-0.6858,-0.6883,-0.6883,-0.6884]},{"header":{"parameterUnit":"m.s-1","parameterCategory":1,"la1":30.2991,"la2":30.254,"lo1":-89.0895,"lo2":-89.0444,"dy":0.0017,"dx":0.0017,"nx":28,"ny":28,"refTime":"2024-09-25T03:00:00:Z","depth":0,"parameterNumber":3,"parameterNumberName":"V-component_of_WINDS"},"data":[0,0,0,0,0,0,0,0,0,0,0,0,0,0,0,0,0,0,0,0,0,0,0,0,0,0,0,0,0,0,0,0,0,0,0,0,0,0,0,0,0,0,0,0,0,0,0,0,0,0,0,0,0,0,0,0,0,0,0.4807,0.4807,0,0.4758,0.4758,0.4757,0.4717,0.4717,0.4716,0.4716,0.4664,0.4663,0.4662,0,0,0,0,0,0,0,0,0,0,0,0,0,0.4865,0.4864,0.4808,0.4807,0.4806,0.4758,0.4758,0.4757,0.4717,0.4717,0.4716,0.4716,0.4664,0.4663,0.4661,0,0,0,0,0,0,0,0,0,0,0,0,0,0.483,0.4864,0.4808,0.4781,0.4778,0.4758,0.4758,0.4757,0.4717,0.4717,0.4716,0.4716,0.4664,0.4663,0.4661,0.4664,0,0,0.4657,0.4656,0,0,0,0,0,0,0,0,0.4832,0.4828,0.4785,0.4783,0.4779,0.4743,0.4759,0.4726,0.4717,0.474,0.4716,0.4715,0.469,0.4687,0.4679,0.4662,0.4659,0.4656,0.4656,0.4655,0.4654,0,0,0,0,0,0,0,0.4835,0.483,0.4788,0.4785,0.4781,0.477,0.4765,0.4752,0.4719,0.4738,0.4735,0.473,0.4689,0.468,0.4677,0.4658,0.4656,0.4655,0.4654,0.4654,0.4639,0.464,0,0,0,0,0,0,0.4841,0.4832,0.4789,0.4786,0.4805,0.477,0.4764,0.4755,0.4719,0.4713,0.4731,0.4728,0.4683,0.4679,0.4675,0.4675,0.4655,0.4653,0.4653,0.4639,0.464,0.464,0,0,0,0,0,0,0.4843,0.4838,0.4791,0.4809,0.4802,0.4769,0.4761,0.4755,0.4746,0.4714,0.4707,0.4728,0.4683,0.4677,0.4667,0.4673,0.4653,0.4651,0.4638,0.4639,0.464,0.4675,0,0,0,0,0,0,0.4845,0.4839,0.484,0.4809,0.4801,0.4785,0.4761,0.4754,0.4744,0.4741,0.471,0.4704,0.4682,0.4669,0.4665,0.467,0.465,0.4638,0.4639,0.464,0.4673,0.4677,0.468,0,0,0,0,0,0.4847,0.4852,0.484,0.4836,0.4802,0.4785,0.4781,0.4756,0.4745,0.4745,0.4724,0.4705,0.4673,0.4669,0.4664,0.4668,0.4637,0.4638,0.4639,0.4672,0.4676,0.468,0,0,0,0,0,0,0.4884,0.4847,0.4834,0.483,0.4811,0.4779,0.4779,0.4761,0.4745,0.4742,0.4711,0.4705,0.4697,0.4682,0.4678,0.4668,0.4652,0.4653,0.4679,0.4683,0.4686,0.469,0.4649,0,0,0,0,0,0.4892,0.4882,0.485,0.4849,0.4841,0.4811,0.4803,0.4785,0.4764,0.4756,0.4734,0.4714,0.4699,0.469,0.4675,0.4671,0.4663,0.4672,0.4675,0.4678,0.4678,0.4674,0.4677,0.4644,0.4644,0.4644,0,0,0.4908,0.4887,0.4882,0.4856,0.484,0.4829,0.4805,0.4795,0.4787,0.4754,0.4743,0.4726,0.4702,0.4694,0.469,0.4681,0.4686,0.468,0.4682,0.4681,0.4676,0.4679,0.4681,0.4645,0.4645,0.4645,0,0,0.4931,0.4915,0.4911,0.4895,0.4871,0.4851,0.485,0.4821,0.4808,0.4797,0.4772,0.4761,0.4736,0.472,0.4708,0.4724,0.4705,0.472,0.4738,0.4734,0.4736,0.4738,0.4743,0.4745,0.4721,0.4721,0.4721,0,0.4954,0.4938,0.4912,0.4903,0.4892,0.4863,0.4858,0.4844,0.4815,0.4808,0.4798,0.4766,0.4748,0.4736,0.4739,0.4731,0.4728,0.4723,0.4738,0.474,0.4742,0.4746,0.4748,0.4722,0.4722,0.4722,0.4722,0,0.4966,0.4955,0.4955,0.4929,0.4918,0.4911,0.4883,0.4875,0.4858,0.4839,0.4827,0.4804,0.4783,0.4778,0.4762,0.4763,0.4758,0.4744,0.4728,0.4747,0.475,0.4752,0.4725,0.4724,0.4724,0.4723,0,0,0.5011,0.497,0.4971,0.4958,0.4928,0.4919,0.4911,0.4891,0.4884,0.4865,0.4856,0.4836,0.4822,0.4809,0.479,0.4787,0.48,0.4773,0.4772,0.4778,0.4798,0.4809,0.4811,0.4787,0.4788,0.4788,0.48,0,0.5029,0.5014,0.4989,0.4981,0.497,0.4942,0.4935,0.4915,0.4898,0.4885,0.4865,0.485,0.4834,0.4826,0.4821,0.4799,0.4803,0.4798,0.4778,0.4778,0.4784,0.4813,0.4824,0.4837,0.4801,0.4802,0.4802,0,0.5048,0.5031,0.5022,0.4992,0.4987,0.4981,0.496,0.4948,0.4925,0.4912,0.4897,0.4877,0.4865,0.4851,0.4834,0.4831,0.4822,0.481,0.4809,0.4806,0.479,0.4809,0.484,0.4842,0.4804,0.4804,0.4803,0,0.508,0.5055,0.5046,0.5036,0.5002,0.4998,0.4984,0.496,0.4949,0.4931,0.4923,0.4903,0.4892,0.4877,0.4851,0.4843,0.4837,0.4821,0.4825,0.4825,0.4824,0.4824,0.4853,0.482,0.482,0.482,0.4819,0,0.5102,0.5097,0.506,0.5055,0.5048,0.502,0.5014,0.4997,0.4976,0.4966,0.494,0.4931,0.4898,0.4884,0.4864,0.4853,0.4848,0.4836,0.4831,0.4838,0.484,0.4831,0.4829,0.482,0.482,0.482,0.482,0,0.5137,0.5112,0.5101,0.5069,0.5061,0.5057,0.503,0.5023,0.5003,0.4991,0.4986,0.4955,0.4938,0.4911,0.4885,0.4872,0.4863,0.4855,0.4871,0.4868,0.4873,0.4872,0.4896,0.4898,0.4865,0.4865,0.4865,0,0.5152,0.5148,0.5116,0.5108,0.5094,0.5081,0.5069,0.5041,0.5031,0.5004,0.5,0.498,0.4964,0.4937,0.4912,0.4892,0.4882,0.4892,0.4879,0.4886,0.4881,0.4881,0.488,0.4895,0.4895,0.4896,0.4896,0,0.5181,0.5169,0.5154,0.5135,0.5122,0.5106,0.5087,0.5082,0.505,0.5039,0.5021,0.5008,0.4982,0.4963,0.4939,0.4923,0.4904,0.49,0.49,0.4907,0.4916,0.491,0.4878,0.49,0.4899,0.4899,0.4899,0.4899,0.5206,0.52,0.5177,0.5161,0.5144,0.5128,0.5119,0.5099,0.5084,0.5061,0.5045,0.5028,0.5004,0.4971,0.4955,0.4941,0.4933,0.4932,0.4932,0.4932,0.4935,0.4919,0.4937,0.4937,0.4936,0.4936,0.4936,0,0.5233,0.5216,0.5202,0.5177,0.5164,0.5148,0.5127,0.5117,0.5103,0.5082,0.5066,0.5045,0.5026,0.5,0.4978,0.4972,0.4962,0.4967,0.4967,0.4963,0.4944,0.4946,0.4975,0.4975,0.4975,0.4975,0.4975,0.4975,0.5245,0.5234,0.5219,0.52,0.5183,0.5166,0.5156,0.514,0.5123,0.5101,0.5086,0.5069,0.5045,0.5022,0.5004,0.4996,0.4989,0.4996,0.4986,0.4968,0.4965,0.4961,0.4963,0.4995,0.4995,0.5006,0.5006,0.5007]}]]